Overview Statistics Trail Chart Weather Telemetry Raw packets
 

This is the latest recevied weather packets stored in our database for station/object KA1JKB. If no packets are shown the sender has not sent any weather packets the latest 10 day(s).

<< 94 95 96 97 98 99 100 >>
Time Temp. Humidity Pressure Rain* Wind** Luminosity Snow
1787744862 12.22° C 99% 1013.5 hPa 0 mm - 35 W/m² -
1787744558 11.67° C 99% 1013.5 hPa 0 mm - 29 W/m² -
1787744252 11.67° C 99% 1013.6 hPa 0 mm - 26 W/m² -
1787743949 11.67° C 99% 1013.5 hPa 0 mm - 20 W/m² -
1787743648 11.67° C 99% 1013.7 hPa 0 mm - 16 W/m² -
1787743344 11.11° C 99% 1013.8 hPa 0 mm - 12 W/m² -
1787743040 11.11° C 99% 1013.6 hPa 0 mm - 10 W/m² -
1787742735 10.56° C 99% 1013.7 hPa 0 mm - 7 W/m² -
1787742430 10.56° C 99% 1013.7 hPa 0 mm - 5 W/m² -
1787742127 11.11° C 99% 1014.1 hPa 0 mm - 3 W/m² -
1787741821 11.11° C 99% 1014 hPa 0 mm - 1 W/m² -
1787741518 11.67° C 99% 1014.1 hPa 0 mm - 0 W/m² -
1787741217 11.67° C 99% 1013.9 hPa 0 mm - 0 W/m² -
1787740917 11.67° C 99% 1013.9 hPa 0 mm - 0 W/m² -
1787740617 11.67° C 99% 1013.9 hPa 0 mm - 0 W/m² -
1787740311 11.67° C 99% 1014.1 hPa 0 mm - 0 W/m² -
1787740007 11.67° C 99% 1013.7 hPa 0 mm - 0 W/m² -
1787739703 11.11° C 99% 1014 hPa 0 mm - 0 W/m² -
1787739398 11.11° C 99% 1013.9 hPa 0 mm - 0 W/m² -
1787739093 10.56° C 99% 1013.8 hPa 0 mm - 0 W/m² -
1787738790 11.11° C 99% 1013.9 hPa 0 mm - 0 W/m² -
1787738486 11.11° C 99% 1013.9 hPa 0 mm - 0 W/m² -
1787738183 10.56° C 99% 1013.9 hPa 0 mm - 0 W/m² -
1787737879 10.56° C 99% 1013.8 hPa 0 mm - 0 W/m² -
1787737574 11.11° C 99% 1014 hPa 0 mm - 0 W/m² -

* Rain latest hour (hover to see other rain measurements)
** Current wind speed in m/s (hover to see current wind gust speed)